Regional Weather Roundup
Issued by NWS

Home | Current Version | Previous Version | Text Only | Print | Product List | Glossary On
Versions: 1 2 3 4 5 6 7 8 9 10 11 12 13 14 15 16 17 18 19 20 21 22 23 24 25 26 27
000
ASUS44 KJAN 180810
RWRMS

MISSISSIPPI HOURLY WEATHER ROUNDUP
NATIONAL WEATHER SERVICE JACKSON MS
300 AM CDT WED OCT 18 2017

NOTE: "FAIR: INDICATES FEW OR NO CLOUDS BELOW 12,000 FEET WITH NO
SIGNIFICANT WEATHER AND/OR OBSTRUCTIONS TO VISIBILITY.

MSZ001>002-007>008-010>013-018>021-025>028-034>036-180900-
NORTHWEST MISSISSIPPI

CITY           SKY/WX    TMP DP  RH WIND       PRES   REMARKS
BATESVILLE     FAIR      42  41  95 CALM      30.24S
CLARKSDALE       N/A     50  50 100 CALM      30.23S
CLEVELAND      FAIR      56  48  76 SE7       30.22S
GREENWOOD      CLEAR     47  45  93 N3        30.23S
GREENVILLE     CLEAR     47  44  90 SE6       30.21S
OXFORD         FAIR      45  43  93 CALM      30.25R
TUNICA           N/A    N/A N/A N/A SE3       30.23S
WINONA         FAIR      44  44 100 CALM      30.23S
$$

MSZ003>006-009-014>017-022>024-029>033-037>039-180900-
NORTHEAST MISSISSIPPI

CITY           SKY/WX    TMP DP  RH WIND       PRES   REMARKS
COLUMBUS AFB   CLEAR     44  44  99 CALM      30.24S
CORINTH        FOG       43  41  93 CALM      30.24S VSB 1/2
GOLDN TRIANGLE CLEAR     52  47  83 E3        30.25S
STARKVILLE     FAIR      43  41  93 CALM      30.25S
TUPELO         CLEAR     46  43  89 CALM      30.23F
$$

MSZ040-058-180900-
CENTRAL MISSISSIPPI

CITY           SKY/WX    TMP DP  RH WIND       PRES   REMARKS
JACKSON INTL   CLEAR     50  46  86 CALM      30.21R
JACKSON HAWKNS CLEAR     53  50  89 CALM      30.22R
MADISON        FAIR      54  50  87 CALM      30.21S
MERIDIAN KEY   CLEAR     47  46  97 N3        30.23R
MERIDIAN NAS   CLEAR     47  44  90 CALM      30.24
RAYMOND        FAIR      48  48 100 CALM      30.21S FOG
VICKSBURG VKS  SUNNY     50  50 100 CALM      30.23R FOG
$$

MSZ059>079-180900-
SOUTH MISSISSIPPI

CITY           SKY/WX    TMP DP  RH WIND       PRES   REMARKS
HATTIESBURG    PTCLDY    50  50 100 CALM      30.20F
LAUREL         FAIR      49  49 100 CALM      30.21F
MCCOMB         CLEAR     55  49  80 E5        30.18F
NATCHEZ        CLEAR     50  49  96 CALM      30.21R
PINE BELT      CLEAR     49  47  93 N3        30.20F
$$

MSZ080>082-180900-
COASTAL MISSISSIPPI

CITY           SKY/WX    TMP DP  RH WIND       PRES   REMARKS
BILOXI         PTCLDY    59  53  78 NE8       30.15F
PASCAGOULA     PTCLDY    57  51  80 NE5       30.17S
GULFPORT       CLEAR     60  53  77 NE5       30.15F
$$

LAZ007>009-015>016-023>026-180900-
NORTHEAST LOUISIANA

CITY           SKY/WX    TMP DP  RH WIND       PRES   REMARKS
BASTROP        FAIR      50  49  98 E3        30.21S
TALLULAH/VBURG CLEAR     49  49 100 CALM      30.22R
VIDALIA          N/A    N/A N/A N/A MISG      30.19S
$$




USA.gov is the U.S. government's official web portal to all federal, state and local government web resources and services.